Other Surface Observations
Issued by NWS Charleston, SC

Home | Current Version | Previous Version | Text Only | Print | Product List | Glossary On
Versions: 1 2 3 4 5 6 7 8 9 10 11 12 13 14 15 16 17 18 19 20 21 22 23 24 25 26 27 28 29 30 31 32 33 34 35 36 37 38 39 40 41 42 43 44 45 46 47 48 49 50
241
SXUS52 KCHS 242128
OSOCHS

MARINE OBSERVATIONS
NATIONAL WEATHER SERVICE CHARLESTON SC
500 PM EDT WED AUG 24 2016

...DOWNTOWN CHARLESTON AND HARBOR...

CITY           SKY/WX    TMP DP  RH WIND       PRES   REMARKS
WATERFRONT PRK   N/A     86  70  58 E15       30.16F HX  90

...LAKE MOULTRIE...

CITY           SKY/WX    TMP DP  RH WIND       PRES   REMARKS
PINOPOLIS        N/A     84  64  51 E5        30.11F

...LAKE AND SUPPLEMENTAL COASTAL OBSERVATIONS...

STATION/POSITION TIME  TEMP    WIND        PRES    WAVE   SWELL
                       AIR SEA DIR/SP/G            HT/PER HT/PER/DIR
                 (UTC) (F)     (DEG/KT/KT) (MB)    (FT/S) (FT/S/D)
FORT PULASKI     2100   83 86   60/ 17/ 21 1022.1F
SAPELO ISLAND    2100   86      60/ 13     1021.0F
WINYAH BAY       2045   82      90/  8     1021.0F
LAKE MURRAY      2100   90      CALM  /  2 1021.3F
ACE BASIN NERRS  2000   89      80/  3     1022.0F


...C-MAN AND BUOY OBSERVATIONS...

STATION/POSITION TIME  TEMP    WIND        PRES    WAVE   SWELL
                       AIR SEA DIR/SP/G            HT/PER HT/PER/DIR
                 (UTC) (F)     (DEG/KT/KT) (MB)    (FT/S) (FT/S/D)
BUOY 41004       2050   82 84   40/ 17/ 19 1021.2F   5/ 8   2/ 90/ 8
BUOY 41008       2050   82 85   70/ 17/ 19 1020.8F   4/ 5   2/ 90/ 8
FOLLY BEACH CMAN 2100   82      80/ 13/ 16 1022.3F
CAPERS NS BUOY   2108   82 84   90/ 12/ 16 1021.6F
FRIPP NS BUOY    2108   83 87   90/ 16/ 21 1021.1F
5E ST. MARYS GA  2101      84                N/A     4/ 5


STATION/POSITION TIME  TEMP    WIND        PRES    WAVE   SWELL
                       AIR SEA DIR/SP/G            HT/PER HT/PER/DIR
                 (UTC) (F)     (DEG/KT/KT) (MB)    (FT/S) (FT/S/D)
FRYING PAN BUOY  2100   80 85   30/ 12/ 16 1021.5F
BUOY 41025       2050   81 85   90/ 10/ 12 1022.5F   3/ 5   3/ 50/ 5
CAPE LOOKOUT NC  2100   79      10/ 11/ 13 1021.9F
BUOY 41002       2050   82 85   50/ 14/ 17 1019.5F   5/11   3/100/11
BUOY 41010       NOT AVBL
ST AUGUSTINE FL  2100   83 85   30/ 16/ 17 1020.8F

$$




USA.gov is the U.S. government's official web portal to all federal, state and local government web resources and services.